FW7170 Weather Reports


Display with metric or nautical units.
time (UTC)temp
F
wind
direction
speed
MPH
gust
MPH
rain 1hr
in
rain 24hr
in
rain mn
in
humidity
%
barometer
mb
20260906111203 73 99 0.0 0.0 0.00 0.00 0.00 99 1011.0
20260906110659 73 98 0.0 0.0 0.00 0.00 0.00 99 1010.9
20260906110154 73 108 0.0 0.0 0.00 0.00 0.00 99 1010.7
20260906105648 73 117 1.0 1.0 0.00 0.00 0.00 99 1010.6
20260906105144 73 103 0.0 0.0 0.00 0.00 0.00 99 1010.5
20260906104643 73 104 0.0 0.0 0.00 0.00 0.00 99 1010.7
20260906104137 73 105 0.0 0.0 0.00 0.00 0.00 99 1010.8
20260906103635 73 107 0.0 0.0 0.00 0.00 0.00 99 1010.6
20260906103130 73 112 0.0 1.0 0.00 0.00 0.00 99 1010.4
20260906102626 73 107 0.0 0.0 0.00 0.00 0.00 99 1010.4
20260906102126 73 102 0.0 0.0 0.00 0.00 0.00 99 1010.5
20260906101626 73 102 0.0 0.0 0.00 0.00 0.00 99 1010.2
20260906101126 73 101 0.0 0.0 0.00 0.00 0.00 99 1010.1
20260906100621 73 103 0.0 0.0 0.00 0.00 0.00 99 1010.2
20260906100121 73 103 0.0 0.0 0.00 0.00 0.00 99 1010.2
20260906095616 73 103 0.0 0.0 0.00 0.00 0.00 99 1010.2
20260906095112 73 105 0.0 0.0 0.00 0.00 0.00 99 1010.3
20260906094610 73 106 0.0 0.0 0.00 0.00 0.00 99 1010.1
20260906094106 74 106 0.0 0.0 0.00 0.00 0.00 99 1010.1
20260906093602 74 113 0.0 0.0 0.00 0.00 0.00 99 1010.1
20260906093057 74 119 1.0 1.0 0.00 0.00 0.00 99 1010.1
20260906092552 73 120 1.0 1.0 0.00 0.00 0.00 99 1009.8
20260906092047 73 101 0.0 0.0 0.00 0.00 0.00 99 1009.7
20260906091543 74 100 0.0 0.0 0.00 0.00 0.00 99 1009.9
20260906091039 74 106 0.0 0.0 0.00 0.00 0.00 99 1009.8
20260906090534 74 101 0.0 0.0 0.00 0.00 0.00 99 1009.7
20260906090028 74 101 0.0 0.0 0.00 0.00 0.00 99 1009.8
20260906085527 74 103 0.0 0.0 0.00 0.00 0.00 99 1009.7
20260906085027 74 106 0.0 0.0 0.00 0.00 0.00 99 1009.6
20260906084522 74 101 0.0 0.0 0.00 0.00 0.00 99 1009.6
20260906084020 74 103 0.0 0.0 0.00 0.00 0.00 99 1009.7
20260906083516 74 103 0.0 0.0 0.00 0.00 0.00 99 1009.9
20260906083016 74 103 0.0 0.0 0.00 0.00 0.00 99 1009.7
20260906082511 74 100 0.0 0.0 0.00 0.00 0.00 99 1010.0
20260906082007 74 99 0.0 0.0 0.00 0.00 0.00 99 1010.1
20260906081502 74 106 0.0 0.0 0.00 0.00 0.00 99 1009.7
20260906080958 74 105 0.0 0.0 0.00 0.00 0.00 99 1009.9
20260906080454 75 104 0.0 0.0 0.00 0.00 0.00 99 1009.7
20260906075949 74 104 0.0 0.0 0.00 0.00 0.00 98 1009.9
20260906075444 74 104 0.0 0.0 0.00 0.00 0.00 98 1010.1
20260906074939 74 103 0.0 0.0 0.00 0.00 0.00 98 1010.1
20260906074439 74 103 0.0 1.0 0.00 0.00 0.00 98 1009.8
20260906073937 74 101 0.0 0.0 0.00 0.00 0.00 98 1010.3
20260906073432 74 103 0.0 0.0 0.00 0.00 0.00 98 1010.2
20260906072929 74 103 0.0 0.0 0.00 0.00 0.00 98 1010.0
20260906072424 74 103 0.0 0.0 0.00 0.00 0.00 98 1010.2
20260906071920 74 103 0.0 0.0 0.00 0.00 0.00 98 1010.3
20260906071415 74 103 0.0 0.0 0.00 0.00 0.00 98 1010.3
20260906070911 74 103 0.0 0.0 0.00 0.00 0.00 97 1010.4
20260906070407 75 104 0.0 0.0 0.00 0.00 0.00 97 1010.4
20260906065902 75 104 0.0 0.0 0.00 0.00 0.00 97 1010.6
20260906065356 75 104 0.0 0.0 0.00 0.00 0.00 97 1010.7
20260906064853 75 104 0.0 0.0 0.00 0.00 0.00 97 1010.6
20260906064349 75 103 0.0 0.0 0.00 0.00 0.00 97 1010.6
20260906063848 75 104 0.0 0.0 0.00 0.00 0.00 97 1010.5
20260906063344 76 106 0.0 0.0 0.00 0.00 0.00 96 1010.6
20260906062839 76 111 0.0 0.0 0.00 0.00 0.00 96 1010.6
20260906062338 75 107 0.0 0.0 0.00 0.00 0.00 95 1010.3
20260906061833 76 107 0.0 0.0 0.00 0.00 0.00 94 1010.5
20260906061329 76 108 0.0 0.0 0.00 0.00 0.00 94 1010.7
20260906060824 76 120 1.0 1.0 0.00 0.00 0.00 94 1011.0
20260906060322 76 103 0.0 0.0 0.00 0.00 0.00 93 1011.0
20260906055818 76 102 0.0 0.0 0.00 0.00 0.00 93 1010.9
20260906055313 76 102 0.0 0.0 0.00 0.00 0.00 93 1010.8
20260906054809 76 102 0.0 0.0 0.00 0.00 0.00 93 1010.7
20260906054304 76 107 0.0 0.0 0.00 0.00 0.00 94 1010.6
20260906053800 76 103 0.0 0.0 0.00 0.00 0.00 93 1010.9
20260906053256 76 103 0.0 0.0 0.00 0.00 0.00 93 1010.6
20260906052750 76 103 0.0 0.0 0.00 0.00 0.00 93 1010.6
20260906052246 77 106 0.0 0.0 0.00 0.00 0.00 93 1010.8
20260906051743 77 103 0.0 0.0 0.00 0.00 0.00 93 1010.6
20260906051243 77 100 0.0 0.0 0.00 0.00 0.00 93 1010.9
20260906050738 77 116 1.0 1.0 0.00 0.00 0.00 92 1011.1
20260906050233 77 102 0.0 0.0 0.00 0.00 0.00 91 1011.1
20260906045731 78 106 0.0 0.0 0.00 0.00 0.00 91 1011.2
20260906045221 78 119 1.0 1.0 0.00 0.00 0.00 90 1011.1
20260906044717 78 107 0.0 0.0 0.00 0.00 0.00 90 1011.4
20260906044212 78 102 1.0 1.0 0.00 0.00 0.00 90 1011.2
20260906043708 78 126 1.0 1.0 0.00 0.00 0.00 90 1011.4
20260906043204 79 102 0.0 0.0 0.00 0.00 0.00 89 1011.4
20260906042703 79 124 1.0 1.0 0.00 0.00 0.00 89 1011.5
20260906042203 79 100 1.0 1.0 0.00 0.00 0.00 88 1011.2
20260906041659 79 101 1.0 1.0 0.00 0.00 0.00 88 1011.5
20260906041153 79 100 0.0 0.0 0.00 0.00 0.00 87 1011.4
20260906040649 79 107 0.0 0.0 0.00 0.00 0.00 88 1011.5
20260906040144 80 104 0.0 0.0 0.00 0.00 0.00 91 1011.5
20260906035645 80 103 0.0 0.0 0.00 0.00 0.00 91 1011.4
20260906035140 80 104 0.0 0.0 0.00 0.00 0.00 90 1011.4
20260906034635 81 69 3.0 3.0 0.00 0.00 0.00 91 1011.4
20260906034129 81 97 1.0 1.0 0.00 0.00 0.00 93 1011.1
20260906033625 82 103 2.0 3.0 0.00 0.00 0.00 94 1011.2
20260906033120 82 103 0.0 0.0 0.00 0.00 0.00 94 1010.9
20260906032617 82 103 1.0 1.0 0.00 0.00 0.00 95 1011.0
20260906032116 82 108 1.0 1.0 0.00 0.00 0.00 94 1011.2
20260906031612 82 101 0.0 0.0 0.00 0.00 0.00 95 1011.2
20260906031108 82 107 0.0 0.0 0.00 0.00 0.00 95 1011.2
20260906030606 82 108 0.0 0.0 0.00 0.00 0.00 95 1011.1
20260906030101 83 64 1.0 2.0 0.00 0.00 0.00 95 1011.4
20260906025556 82 104 0.0 0.0 0.00 0.00 0.00 95 1011.2
20260906025054 82 102 0.0 1.0 0.00 0.00 0.00 96 1011.2
20260906024549 83 101 1.0 1.0 0.00 0.00 0.00 96 1010.8
20260906024049 83 118 1.0 1.0 0.00 0.00 0.00 96 1010.9
20260906023546 83 110 0.0 0.0 0.00 0.00 0.00 96 1010.9
20260906023040 83 113 0.0 1.0 0.00 0.00 0.00 96 1010.6
20260906022536 83 111 0.0 0.0 0.00 0.00 0.00 96 1010.5
20260906022031 83 123 1.0 1.0 0.00 0.00 0.00 96 1010.7
20260906021527 83 103 0.0 0.0 0.00 0.00 0.00 96 1010.7
20260906021025 84 118 1.0 1.0 0.00 0.00 0.00 96 1010.5
20260906020525 84 112 1.0 1.0 0.00 0.00 0.00 95 1010.5
20260906020025 84 121 1.0 1.0 0.00 0.00 0.00 95 1009.9
20260906015524 84 124 1.0 1.0 0.00 0.00 0.00 95 1010.2
20260906015023 84 125 1.0 1.0 0.00 0.00 0.00 94 1010.5
20260906014518 84 90 1.0 1.0 0.00 0.00 0.00 95 1010.3
20260906014014 84 95 0.0 1.0 0.00 0.00 0.00 95 1009.7
20260906013509 84 92 1.0 1.0 0.00 0.00 0.00 95 1009.3
20260906013005 84 112 1.0 1.0 0.00 0.00 0.00 95 1008.8
20260906012501 84 125 1.0 1.0 0.00 0.00 0.00 95 1008.9
20260906011959 84 155 2.0 2.0 0.00 0.00 0.00 94 1008.8
20260906011456 84 112 0.0 1.0 0.00 0.00 0.00 94 1009.4
20260906010950 84 119 1.0 1.0 0.00 0.00 0.00 94 1010.0
20260906010446 84 115 1.0 1.0 0.00 0.00 0.00 93 1010.0
20260906005943 84 113 0.0 0.0 0.00 0.00 0.00 93 1010.5
20260906005441 85 116 0.0 1.0 0.00 0.00 0.00 93 1010.5
20260906004940 85 115 0.0 1.0 0.00 0.00 0.00 93 1010.5
20260906004434 85 152 2.0 2.0 0.00 0.00 0.00 92 1010.7
20260906003925 85 108 1.0 1.0 0.00 0.00 0.00 92 1011.1
20260906003419 85 91 2.0 2.0 0.00 0.00 0.00 91 1011.0
20260906002914 85 107 1.0 1.0 0.00 0.00 0.00 91 1010.8
20260906002414 85 122 1.0 1.0 0.00 0.00 0.00 91 1010.7
20260906001915 85 158 2.0 2.0 0.00 0.00 0.00 90 1010.6
20260906001410 86 118 0.0 1.0 0.00 0.00 0.00 90 1010.8
20260906000910 86 122 1.0 2.0 0.00 0.00 0.00 90 1010.6
20260906000406 86 124 1.0 1.0 0.00 0.00 0.00 90 1010.8
20260905235900 86 116 0.0 0.0 0.00 0.00 0.00 90 1010.9
20260905235354 86 115 1.0 1.0 0.00 0.00 0.00 89 1010.9
20260905234844 86 121 0.0 1.0 0.00 0.00 0.00 89 1010.8
20260905234340 86 115 0.0 1.0 0.00 0.00 0.00 88 1011.0
20260905233835 86 132 1.0 2.0 0.00 0.00 0.00 88 1010.5
20260905233330 87 116 1.0 1.0 0.00 0.00 0.00 88 1010.7
20260905232829 87 116 1.0 1.0 0.00 0.00 0.00 87 1010.7
20260905232325 87 118 1.0 1.0 0.00 0.00 0.00 87 1010.8
20260905231821 87 118 0.0 1.0 0.00 0.00 0.00 87 1010.7
20260905231315 87 115 1.0 1.0 0.00 0.00 0.00 87 1010.8
20260905230812 88 115 0.0 1.0 0.00 0.00 0.00 86 1010.5
20260905230310 88 121 1.0 1.0 0.00 0.00 0.00 86 1010.6
20260905225809 88 113 1.0 1.0 0.00 0.00 0.00 85 1010.5
20260905225306 89 126 1.0 2.0 0.00 0.00 0.00 85 1010.3
20260905224803 89 124 1.0 1.0 0.00 0.00 0.00 85 1010.4
20260905224259 90 150 2.0 2.0 0.00 0.00 0.00 83 1010.5
20260905223754 91 109 0.0 1.0 0.00 0.00 0.00 83 1010.4
20260905223252 91 124 1.0 1.0 0.00 0.00 0.00 81 1010.4
20260905222747 91 121 1.0 1.0 0.00 0.00 0.00 82 1010.2
20260905222246 91 117 1.0 1.0 0.00 0.00 0.00 81 1010.2
20260905221742 92 123 1.0 1.0 0.00 0.00 0.00 80 1010.0
20260905221239 93 115 1.0 1.0 0.00 0.00 0.00 79 1010.1
20260905220734 93 134 1.0 2.0 0.00 0.00 0.00 77 1010.1
20260905220230 93 122 1.0 1.0 0.00 0.00 0.00 77 1009.9
20260905215730 93 155 2.0 2.0 0.00 0.00 0.00 78 1010.1
20260905215226 91 95 1.0 2.0 0.00 0.00 0.00 81 1010.2
20260905214721 90 109 1.0 2.0 0.00 0.00 0.00 82 1010.0
20260905214216 91 112 0.0 0.0 0.00 0.00 0.00 82 1010.0
20260905213712 91 117 1.0 2.0 0.00 0.00 0.00 81 1009.9
20260905213208 93 113 1.0 1.0 0.00 0.00 0.00 77 1010.0
20260905212703 92 120 1.0 2.0 0.00 0.00 0.00 77 1009.9
20260905212202 92 114 0.0 0.0 0.00 0.00 0.00 78 1009.7
20260905211656 92 102 0.0 1.0 0.00 0.00 0.00 76 1009.8
20260905211152 95 72 2.0 5.0 0.00 0.00 0.00 69 1009.6
20260905210649 96 100 0.0 1.0 0.00 0.00 0.00 62 1009.7
20260905210148 93 134 2.0 2.0 0.00 0.00 0.00 70 1009.6
20260905205647 95 113 1.0 1.0 0.00 0.00 0.00 68 1009.6
20260905205142 96 116 0.0 0.0 0.00 0.00 0.00 62 1009.6
20260905204641 94 116 1.0 1.0 0.00 0.00 0.00 69 1009.4
20260905204136 94 148 2.0 2.0 0.00 0.00 0.00 68 1009.6
20260905203631 95 88 3.0 3.0 0.00 0.00 0.00 67 1009.4
20260905203126 95 258 2.0 2.0 0.00 0.00 0.00 63 1009.4
20260905202622 95 100 1.0 1.0 0.00 0.00 0.00 63 1009.6
20260905202117 95 164 2.0 2.0 0.00 0.00 0.00 63 1009.5
20260905201613 94 22 5.0 6.0 0.00 0.00 0.00 67 1009.4
20260905201112 95 165 2.0 3.0 0.00 0.00 0.00 65 1009.2
20260905200608 94 109 2.0 2.0 0.00 0.00 0.00 65 1009.7
20260905195556 95 102 0.0 1.0 0.00 0.00 0.00 65 1009.5
20260905195051 95 258 4.0 5.0 0.00 0.00 0.00 65 1009.7
20260905194551 95 93 1.0 2.0 0.00 0.00 0.00 67 1009.7
20260905194049 94 135 1.0 1.0 0.00 0.00 0.00 66 1009.9
20260905193539 95 134 3.0 3.0 0.00 0.00 0.00 70 1009.9
20260905193035 95 56 3.0 3.0 0.00 0.00 0.00 69 1009.9
20260905192529 94 126 1.0 2.0 0.00 0.00 0.00 68 1010.1
20260905192026 95 73 2.0 2.0 0.00 0.00 0.00 69 1010.2
20260905191525 94 127 1.0 1.0 0.00 0.00 0.00 67 1010.3
20260905191024 93 93 1.0 1.0 0.00 0.00 0.00 73 1010.4
20260905190522 93 141 2.0 2.0 0.00 0.00 0.00 69 1010.4
20260905190022 93 141 2.0 2.0 0.00 0.00 0.00 71 1010.6
20260905185516 93 152 1.0 1.0 0.00 0.00 0.00 69 1010.9
20260905185015 94 89 1.0 1.0 0.00 0.00 0.00 69 1010.8
20260905184510 95 173 1.0 1.0 0.00 0.00 0.00 67 1010.9
20260905184008 94 126 1.0 1.0 0.00 0.00 0.00 73 1011.2
20260905183508 94 85 2.0 2.0 0.00 0.00 0.00 73 1011.0
20260905183004 93 168 1.0 1.0 0.00 0.00 0.00 71 1011.2
20260905182502 93 92 1.0 2.0 0.00 0.00 0.00 71 1011.1
20260905181957 93 120 1.0 1.0 0.00 0.00 0.00 70 1011.5
20260905181452 92 30 3.0 5.0 0.00 0.00 0.00 73 1011.6
20260905180951 94 73 0.0 1.0 0.00 0.00 0.00 70 1011.4
20260905180446 92 99 1.0 2.0 0.00 0.00 0.00 75 1011.7
20260905175941 92 4 3.0 5.0 0.00 0.00 0.00 73 1011.6
20260905175441 93 13 1.0 2.0 0.00 0.00 0.00 73 1011.6
20260905174937 92 95 1.0 2.0 0.00 0.00 0.00 75 1011.8
20260905174432 93 93 1.0 1.0 0.00 0.00 0.00 72 1012.0
20260905173927 93 137 2.0 2.0 0.00 0.00 0.00 72 1011.8
20260905173424 93 121 0.0 1.0 0.00 0.00 0.00 71 1011.7
20260905172919 92 80 1.0 2.0 0.00 0.00 0.00 72 1012.0
20260905172416 92 116 1.0 1.0 0.00 0.00 0.00 76 1012.5
20260905171913 91 131 2.0 2.0 0.00 0.00 0.00 74 1012.2
20260905171409 90 135 1.0 1.0 0.00 0.00 0.00 75 1012.3
20260905170905 91 334 2.0 2.0 0.00 0.00 0.00 73 1012.3
20260905170401 91 162 1.0 1.0 0.00 0.00 0.00 73 1012.2
20260905165900 90 101 1.0 1.0 0.00 0.00 0.00 75 1012.2
20260905165355 91 117 3.0 3.0 0.00 0.00 0.00 77 1012.3
20260905164850 92 121 1.0 1.0 0.00 0.00 0.00 75 1012.6
20260905164345 91 90 0.0 1.0 0.00 0.00 0.00 73 1012.6
20260905163840 90 108 0.0 1.0 0.00 0.00 0.00 78 1012.7
20260905163336 90 148 1.0 1.0 0.00 0.00 0.00 75 1012.8
20260905162833 89 111 1.0 2.0 0.00 0.00 0.00 77 1013.0
20260905162332 90 88 2.0 3.0 0.00 0.00 0.00 77 1013.1
20260905161827 92 126 3.0 5.0 0.00 0.00 0.00 76 1013.3
20260905161326 90 112 0.0 1.0 0.00 0.00 0.00 77 1013.2
20260905160824 90 68 2.0 2.0 0.00 0.00 0.00 77 1013.2
20260905160319 90 108 0.0 1.0 0.00 0.00 0.00 80 1013.5
20260905155814 89 104 2.0 2.0 0.00 0.00 0.00 79 1013.7
20260905155313 90 90 1.0 1.0 0.00 0.00 0.00 77 1013.8
20260905154807 90 139 1.0 2.0 0.00 0.00 0.00 79 1013.5
20260905154303 88 94 1.0 1.0 0.00 0.00 0.00 79 1013.7
20260905153758 89 78 3.0 3.0 0.00 0.00 0.00 79 1013.8
20260905153254 89 117 1.0 1.0 0.00 0.00 0.00 82 1014.0
20260905152748 88 97 2.0 2.0 0.00 0.00 0.00 83 1013.5
20260905152242 88 90 3.0 3.0 0.00 0.00 0.00 82 1013.7
20260905151742 87 45 2.0 3.0 0.00 0.00 0.00 81 1013.7
20260905151238 90 104 1.0 1.0 0.00 0.00 0.00 79 1013.9
20260905150738 89 110 1.0 2.0 0.00 0.00 0.00 80 1013.9
20260905150237 86 129 1.0 1.0 0.00 0.00 0.00 85 1013.8
20260905145735 87 143 2.0 3.0 0.00 0.00 0.00 83 1014.0
20260905145230 86 91 1.0 1.0 0.00 0.00 0.00 86 1013.8
20260905144729 87 26 2.0 2.0 0.00 0.00 0.00 84 1014.1
20260905144224 87 115 0.0 0.0 0.00 0.00 0.00 85 1014.0
20260905143724 86 93 1.0 1.0 0.00 0.00 0.00 86 1013.9
20260905143223 86 79 3.0 3.0 0.00 0.00 0.00 86 1014.1
20260905142721 86 55 3.0 5.0 0.00 0.00 0.00 86 1013.8
20260905142216 87 210 3.0 3.0 0.00 0.00 0.00 87 1013.9
20260905141712 87 99 0.0 1.0 0.00 0.00 0.00 85 1013.7
20260905141208 87 121 1.0 1.0 0.00 0.00 0.00 85 1013.9
20260905140703 86 92 0.0 1.0 0.00 0.00 0.00 87 1014.0
20260905140157 86 96 1.0 1.0 0.00 0.00 0.00 87 1013.9
20260905135652 86 79 2.0 2.0 0.00 0.00 0.00 88 1014.0
20260905135148 86 77 3.0 5.0 0.00 0.00 0.00 88 1014.0
20260905134647 85 119 1.0 1.0 0.00 0.00 0.00 90 1013.8
20260905134146 85 81 1.0 2.0 0.00 0.00 0.00 90 1013.7
20260905133642 85 70 2.0 3.0 0.00 0.00 0.00 91 1014.1
20260905133142 84 81 1.0 2.0 0.00 0.00 0.00 91 1014.1
20260905132641 84 105 1.0 1.0 0.00 0.00 0.00 92 1014.3
20260905132136 83 84 2.0 2.0 0.00 0.00 0.00 93 1013.9
20260905131632 84 125 1.0 2.0 0.00 0.00 0.00 93 1014.1
20260905131126 84 99 1.0 1.0 0.00 0.00 0.00 94 1014.0
20260905130627 84 79 1.0 2.0 0.00 0.00 0.00 93 1014.2
20260905130127 83 98 1.0 1.0 0.00 0.00 0.00 94 1014.1
20260905125626 83 114 1.0 1.0 0.00 0.00 0.00 94 1014.2
20260905125123 83 109 0.0 1.0 0.00 0.00 0.00 95 1014.2
20260905124619 82 122 1.0 1.0 0.00 0.00 0.00 96 1014.0
20260905124115 82 92 1.0 2.0 0.00 0.00 0.00 97 1014.1
20260905123609 81 103 0.0 0.0 0.00 0.00 0.00 98 1014.1
20260905123106 81 103 1.0 2.0 0.00 0.00 0.00 99 1013.9
20260905122601 81 111 0.0 1.0 0.00 0.00 0.00 99 1014.0
20260905122101 80 105 0.0 1.0 0.00 0.00 0.00 99 1013.9
20260905121555 79 149 1.0 1.0 0.00 0.00 0.00 99 1014.0
20260905121051 79 109 0.0 0.0 0.00 0.00 0.00 99 1014.0
20260905120550 79 98 1.0 2.0 0.00 0.00 0.00 99 1014.0
20260905120045 79 104 0.0 0.0 0.00 0.00 0.00 99 1014.0
20260905115544 79 103 0.0 0.0 0.00 0.00 0.00 99 1014.0
20260905115039 78 108 0.0 0.0 0.00 0.00 0.00 99 1014.0
20260905114538 78 109 0.0 0.0 0.00 0.00 0.00 99 1013.8
20260905114037 78 105 0.0 0.0 0.00 0.00 0.00 99 1013.7
20260905113532 78 105 0.0 0.0 0.00 0.00 0.00 99 1013.6
20260905113028 77 103 0.0 0.0 0.00 0.00 0.00 99 1013.6
20260905112523 77 103 0.0 0.0 0.00 0.00 0.00 99 1013.8
20260905112018 77 103 0.0 0.0 0.00 0.00 0.00 99 1013.8
20260905111513 77 102 0.0 0.0 0.00 0.00 0.00 99 1013.7